Regional Weather Roundup
Issued by NWS

Home | Current Version | Previous Version | Text Only | Print | Product List | Glossary Off
Versions: 1 2 3 4 5 6 7 8 9 10 11 12 13 14 15 16 17 18 19 20 21 22 23 24 25 26 27 28 29 30 31 32 33 34 35 36 37 38 39 40 41 42 43 44 45 46 47 48 49 50

000
ASUS43 KFSD 192010
RWRSD

WEATHER ROUNDUP FOR SOUTH DAKOTA
NATIONAL WEATHER SERVICE SIOUX FALLS SD
200 PM CST FRI DEC 19 2014

NOTE: "FAIR" INDICATES FEW OR NO CLOUDS BELOW 12,000 FEET WITH NO
SIGNIFICANT WEATHER AND/OR OBSTRUCTIONS TO VISIBILITY.


SDZ001>005-009-010-012>017-192100-
NORTHWEST AND NORTH CENTRAL SOUTH DAKOTA

CITY           SKY/WX    TMP DP  RH WIND       PRES   REMARKS
BUFFALO          N/A     44  24  45 W10       29.83F
MOBRIDGE       MOSUNNY   34  27  75 SE6       29.91F WCI  29
$$

SDZ012>016-024>037-041>051-057-063-072>074-192100-
SOUTHWEST AND SOUTH CENTRAL SOUTH DAKOTA

CITY           SKY/WX    TMP DP  RH WIND       PRES   REMARKS
RAPID CTY ARPT PTSUNNY   49  21  33 NE7       29.93F
PIERRE         CLOUDY    28  24  85 SE5       29.96F WCI  23
CUSTER         MOSUNNY   41  16  36 W9G18     29.91F
ELLSWORTH AFB  CLOUDY    46  23  40 E6        29.93F
PHILIP         PTSUNNY   48  24  39 NW3       29.94F
PINE RIDGE     SUNNY     41  22  46 W9        29.96F
SPEARFISH      FAIR      41  23  48 NE6       29.93F
WINNER         FAIR      35  25  66 SW3       29.97F
$$

SDZ004>011-016>023-039-040-192100-
NORTHEAST SOUTH DAKOTA

CITY           SKY/WX    TMP DP  RH WIND       PRES   REMARKS
ABERDEEN       CLOUDY    31  27  85 S16       30.00F FOG     WCI  20
WATERTOWN      CLOUDY    28  26  92 S14       30.02F FOG     WCI  17
SISSETON         N/A     31  29  92 S12       30.02F WCI  22
$$

SDZ017-020-022-023-036>040-048>070-192100-
SOUTHEAST SOUTH DAKOTA

CITY           SKY/WX    TMP DP  RH WIND       PRES   REMARKS
SIOUX FALLS    CLOUDY    30  27  88 S16       30.09F WCI  19
HURON          CLOUDY    30  27  88 S13       30.03F FOG     WCI  20
CHAMBERLAIN    CLOUDY    27  21  80 SE6       30.00S WCI  20
MITCHELL       CLOUDY    31  29  92 S14       30.06F FOG     WCI  21
YANKTON        CLOUDY    30  27  86 S10       30.10F WCI  21
$$

ABBREVIATIONS USED IN REMARKS
   TC - TEMPERATURE IN CELSIUS
  WCI - WIND CHILL INDEX
   HX - HEAT INDEX
  VSB - VISIBILITY




USA.gov is the U.S. government's official web portal to all federal, state and local government web resources and services.